Cheney Reservoir Weather Center

Moon Phase Calendar



Cheney Reservoir Water Level
Online Cameras

 


      

Current Conditions in Haven
10/17/2021 4:07:56 PM

76°F
Feels Like 74
Clear
Humidity
26%
Pressure
30.06"
Wind
13 mph (SSW)
Dew Point
38°F
UV Index
2/10 (Low)
Visibility
6 mi

Hourly Forecast

Date & Time Sun, Oct 17
4:00 PM
Sun, Oct 17
5:00 PM
Sun, Oct 17
6:00 PM
Sun, Oct 17
7:00 PM
Sun, Oct 17
8:00 PM
Sun, Oct 17
9:00 PM
Sun, Oct 17
10:00 PM
Sun, Oct 17
11:00 PM
Mon, Oct 18
12:00 AM
Mon, Oct 18
1:00 AM
Mon, Oct 18
2:00 AM
Mon, Oct 18
3:00 AM
Mon, Oct 18
4:00 AM
Mon, Oct 18
5:00 AM
Mon, Oct 18
6:00 AM
Mon, Oct 18
7:00 AM
Mon, Oct 18
8:00 AM
Mon, Oct 18
9:00 AM
Mon, Oct 18
10:00 AM
Mon, Oct 18
11:00 AM
Mon, Oct 18
12:00 PM
Mon, Oct 18
1:00 PM
Mon, Oct 18
2:00 PM
Mon, Oct 18
3:00 PM
Mon, Oct 18
4:00 PM
Mon, Oct 18
5:00 PM
Mon, Oct 18
6:00 PM
Mon, Oct 18
7:00 PM
Mon, Oct 18
8:00 PM
Mon, Oct 18
9:00 PM
Mon, Oct 18
10:00 PM
Mon, Oct 18
11:00 PM
Tue, Oct 19
12:00 AM
Tue, Oct 19
1:00 AM
Tue, Oct 19
2:00 AM
Tue, Oct 19
3:00 AM
Tue, Oct 19
4:00 AM
Tue, Oct 19
5:00 AM
Tue, Oct 19
6:00 AM
Tue, Oct 19
7:00 AM
Tue, Oct 19
8:00 AM
Tue, Oct 19
9:00 AM
Tue, Oct 19
10:00 AM
Tue, Oct 19
11:00 AM
Tue, Oct 19
12:00 PM
Tue, Oct 19
1:00 PM
Tue, Oct 19
2:00 PM
Tue, Oct 19
3:00 PM
Condition
Clear

Clear

Clear

Clear

Clear

Clear

Clear

Clear

Clear

Clear

Clear

Clear

Clear

Clear

Clear

Clear

Clear

Clear

Clear

Clear

Clear

Clear

Clouds

Clouds

Clouds

Clouds

Clouds

Clouds

Clear

Clear

Clouds

Clouds

Clouds

Clouds

Clear

Clear

Clear

Clear

Clear

Clear

Clear

Clear

Clear

Clear

Clear

Clear

Clear

Clear
Temperature 76°F75°F73°F69°F65°F60°F59°F60°F59°F57°F56°F55°F54°F54°F53°F52°F52°F54°F59°F63°F66°F69°F70°F71°F71°F70°F68°F65°F64°F63°F62°F61°F60°F59°F59°F58°F58°F58°F57°F57°F56°F58°F62°F66°F69°F73°F75°F77°F
Feels Like 74°F74°F72°F67°F63°F58°F57°F58°F56°F55°F54°F53°F52°F51°F50°F50°F49°F52°F57°F61°F64°F67°F68°F69°F69°F68°F66°F63°F62°F61°F60°F59°F58°F57°F57°F56°F56°F56°F55°F55°F55°F56°F61°F65°F68°F72°F75°F77°F
Cloudiness 0%0%0%0%0%0%0%0%0%0%0%0%0%0%0%0%0%0%3%4%4%5%52%61%74%77%79%67%5%5%36%28%25%21%0%0%0%0%0%0%6%5%4%3%3%3%0%0%
Visibility 6 mi6 mi6 mi6 mi6 mi6 mi6 mi6 mi6 mi6 mi6 mi6 mi6 mi6 mi6 mi6 mi6 mi6 mi6 mi6 mi6 mi6 mi6 mi6 mi6 mi6 mi6 mi6 mi6 mi6 mi6 mi6 mi6 mi6 mi6 mi6 mi6 mi6 mi6 mi6 mi6 mi6 mi6 mi6 mi6 mi6 mi6 mi6 mi
Precipitation 0%0%0%0%0%0%0%0%0%0%0%0%0%0%0%0%0%0%0%0%0%0%0%0%0%0%0%0%0%0%0%0%0%0%0%0%0%0%0%0%0%0%0%0%0%0%0%0%
Humidity 26%27%30%34%38%43%41%37%39%41%44%46%49%51%53%55%58%56%48%42%38%35%33%32%34%36%38%39%40%42%42%44%47%49%51%52%53%54%57%59%61%62%59%55%52%49%47%45%
Dew Point 38°F39°F40°F40°F39°F37°F36°F34°F33°F34°F34°F35°F35°F36°F36°F37°F37°F39°F39°F39°F40°F40°F40°F40°F41°F41°F41°F39°F39°F39°F39°F39°F40°F40°F40°F41°F41°F41°F42°F42°F43°F45°F47°F49°F51°F52°F53°F54°F
Pressure 30.06"30.06"30.06"30.03"30.06"30.06"30.06"30.06"30.06"30.06"30.06"30.06"30.03"30.03"30.03"30.03"30.03"30.03"30.03"30"29.97"29.94"29.91"29.88"29.88"29.85"29.85"29.88"29.91"29.91"29.91"29.91"29.88"29.88"29.88"29.88"29.85"29.85"29.85"29.85"29.88"29.88"29.88"29.85"29.85"29.83"29.8"29.77"
Wind Speed 13 mph11.4 mph8.7 mph9.7 mph10.1 mph10.3 mph12.6 mph14.5 mph13.6 mph13.1 mph12.9 mph12.6 mph12.7 mph12.9 mph13.1 mph13.6 mph14.3 mph15.6 mph19.4 mph21.3 mph22.7 mph23.4 mph23.8 mph24.1 mph21.1 mph20.6 mph19.9 mph18.7 mph18.1 mph18.9 mph19.6 mph19.8 mph19.8 mph19.1 mph18.3 mph18.4 mph18.9 mph19 mph18.4 mph18.2 mph18.3 mph19.1 mph21.3 mph22.6 mph23 mph23.7 mph23.9 mph24.5 mph
Wind
Direction
202°
SSW
194°
SSW
168°
SSE
160°
SSE
167°
SSE
178°
S
188°
S
196°
SSW
197°
SSW
196°
SSW
194°
SSW
189°
S
189°
S
187°
S
183°
S
179°
S
176°
S
176°
S
180°
S
180°
S
181°
S
179°
S
178°
S
180°
S
179°
S
175°
S
172°
S
173°
S
172°
S
170°
S
170°
S
168°
SSE
172°
S
175°
S
174°
S
174°
S
173°
S
174°
S
173°
S
173°
S
174°
S
173°
S
178°
S
186°
S
187°
S
186°
S
187°
S
186°
S

Daily Forecast

Date High Low Precip. Humidity
Today
Oct 17

Clear
76 °F
51 °F
0%
28%
Monday
Oct 18

Clear
71 °F
52 °F
0%
35%
Tuesday
Oct 19

Clear
79 °F
57 °F
20%
49%
Wednesday
Oct 20

Rain
67 °F
54 °F
49%
40%
Thursday
Oct 21

Clear
66 °F
44 °F
0%
44%
Friday
Oct 22

Clouds
70 °F
51 °F
4%
44%
Saturday
Oct 23

Rain
78 °F
56 °F
99%
57%
Sunday
Oct 24

Clouds
76 °F
65 °F
0%
61%
Monday
Oct 25

Rain
83 °F
70 °F
25%
66%
Tuesday
Oct 26

Clear
88 °F
67 °F
3%
24%
Wednesday
Oct 27

Rain
64 °F
51 °F
23%
22%
Thursday
Oct 28

Clear
65 °F
44 °F
0%
20%
Friday
Oct 29

Clouds
71 °F
47 °F
0%
20%
Saturday
Oct 30

Rain
75 °F
56 °F
29%
36%
Sunday
Oct 31

Rain
70 °F
49 °F
56%
36%
Monday
Nov 1

Clear
69 °F
49 °F
0%
33%

Temperature 8-14 Day Outlook



Precipitation 8-14 Day Outlook




Quick Links
Cheney Reservoir News
Cheney Reservoir Photos
Cheney Reservoir Videos




About Us
Contact Us
Site Map
Search Site
Advertise With Us
   
Cheney.LakesOnline.com
THE CHENEY RESERVOIR WEBSITE

Copyright 2021, Lakes Online
Privacy    |    Legal